Flag for U.S.A. Weather past 2 weeks in Santa Cruz, California, U.S.A.

Now
54 °F

Fog.


Feels Like: 54 °F
Forecast: 52 / 70 °F
Wind: No wind

Location: Watsonville Municipal Airport

Current Time: Mar 28, 2015 at 3:00:19 AM

Latest Report: Mar 28, 2015 at 2:02 AM


Visibility: 0 mi

Pressure: 30.17 "Hg

Humidity: 93%

Dew point: 52 °F

Location of Santa CruzLocation

Historic Weather in Santa Cruz — Graph

°F

Santa Cruz temperature yesterday

Maximum temperature yesterday: 68 °F (at 1:53 PM)
Minimum temperature yesterday: 51 °F (at 7:53 AM)
Average temperature yesterday: 59 °F

Past Weeks' High & Low Weather Summary

 TemperatureHumidityPressure
High88 °F (Mar 14, 1:53 PM)100% (Mar 23, 5:53 AM)30.31 "Hg (Mar 23, 5:53 AM)
Low46 °F (Mar 21, 6:53 AM)23% (Mar 14, 4:53 PM)29.96 "Hg (Mar 16, 5:53 PM)
Average61 °F73%30.12 "Hg
* Reported Mar 13 1:53 AM — Mar 28 1:53 AM, Santa Cruz, Weather by CustomWeather, © 2015

Note: Actual official high and low records may vary slightly from our data, if they occured in-between our weather recording intervals... More about our weather records

Advertising

Santa Cruz weather history for previous 24 hours

 ConditionsComfort  
Time TempWeatherWind HumidityBarometerVisibility
1:53 AM
Sat, Mar 28
54 °FFog.3 mph93%30.17 "Hg1 mi
12:53 AM55 °FLow clouds.No wind90%30.18 "Hg10 mi
11:53 PM
Fri, Mar 27
56 °FLow clouds.3 mph87%30.18 "Hg10 mi
10:53 PM55 °FClear.No wind87%30.18 "Hg10 mi
9:53 PM56 °FClear.3 mph87%30.18 "Hg10 mi
8:53 PM57 °FClear.5 mph87%30.15 "Hg10 mi
7:53 PM57 °FSunny.7 mph87%30.13 "Hg10 mi
6:53 PM59 °FSunny.9 mph84%30.12 "Hg10 mi
5:53 PM62 °FSunny.9 mph75%30.12 "Hg10 mi
4:53 PM68 °FSunny.8 mph63%30.12 "Hg10 mi
3:53 PM68 °FSunny.8 mph63%30.11 "Hg10 mi
2:53 PM68 °FSunny.8 mph65%30.13 "Hg10 mi
1:53 PM68 °FSunny.7 mph68%30.14 "Hg10 mi
12:53 PM66 °FSunny.9 mph70%30.15 "Hg10 mi
11:53 AM67 °FSunny.7 mph71%30.16 "Hg10 mi
10:53 AM64 °FSunny.No wind73%30.16 "Hg10 mi
9:53 AM58 °FPassing clouds.No wind84%30.16 "Hg10 mi
8:53 AM54 °FFog.3 mph93%30.15 "Hg3 mi
7:53 AM51 °FFog.No wind96%30.14 "Hg0 mi
6:53 AM52 °FFog.No wind97%30.12 "Hg0 mi
5:53 AM54 °FFog.No wind93%30.11 "Hg0 mi
4:53 AM53 °FFog.3 mph96%30.10 "Hg0 mi
3:53 AM55 °FFog.No wind96%30.10 "Hg0 mi
Weather by CustomWeather, © 2015

See weather overviewHow to use our weather pages